Temp
23 22 21 22 22 22 22 22 22 22 22 22 22 22 22 23 23 24 24 24 23 23 23 23 23 23 23 24 23 24 24 24 24 24 24 24 24 24 24 24 24 24 24 24 25 25 25 25 25 25 24 24 23 23 24 24 24 23 23 23 23 24 23 23 22 22 22 22 22 22 22 22 22 22 22 22 22 22 22 22 22 22 21 21 20
23 22 21 21 21 22 22 22 22 22 22 22 22 22 22 23 23 23 24 24 24 23 23 23 23 24 24 24 23 24 24 24 24 23 24 24 24 24 24 24 24 24 24 24 25 25 25 25 25 24 24 24 23 23 23 23 23 23 22 22 23 23 23 23 23 22 22 22 22 22 22 22 22 22 22 22 22 22 22 22 22 22 21 21 21
23 22 22 21 21 22 22 22 22 22 22 22 22 22 23 23 23 23 24 24 24 23 23 23 23 24 24 24 24 24 24 24 23 23 23 23 24 24 24 23 24 24 24 24 24 24 24 24 24 24 24 24 24 23 23 23 23 22 22 22 22 22 23 23 22 22 22 22 22 22 22 22 22 22 22 22 22 22 22 22 22 22 22 21 22
23 22 22 22 22 22 22 22 22 23 23 23 22 22 23 23 23 23 23 24 24 23 23 23 23 24 24 24 24 24 24 24 23 23 23 23 24 24 24 23 23 24 24 24 24 24 24 24 24 24 24 24 24 23 23 23 22 22 22 22 22 22 22 22 22 22 22 22 22 22 22 22 21 22 22 22 22 22 22 22 22 22 22 22 22
23 23 22 22 22 22 22 22 23 23 22 23 22 22 22 23 23 23 23 23 23 23 23 23 23 24 23 23 23 23 23 23 23 23 23 23 24 24 24 23 23 24 24 24 24 24 24 24 24 24 24 24 24 23 23 22 22 22 22 22 22 22 23 22 22 22 22 22 22 22 22 22 21 21 21 22 22 22 22 22 22 22 22 22 22
24 23 22 22 22 22 22 22 23 23 22 22 22 22 22 23 23 23 23 23 23 23 23 23 23 23 23 23 23 23 23 23 23 23 23 23 23 23 23 23 23 23 24 24 24 24 24 24 24 24 24 24 24 23 23 22 22 22 22 22 22 23 23 22 23 22 22 22 22 22 22 22 22 22 21 21 21 22 22 22 22 22 21 21 21
24 23 23 23 22 22 22 22 22 22 22 22 22 22 22 22 23 23 23 23 23 23 23 23 23 23 23 23 23 23 23 23 23 23 23 23 23 23 23 23 23 23 23 23 24 24 24 24 24 24 24 24 24 23 23 23 22 22 22 22 22 22 23 22 23 23 22 22 22 22 22 22 22 22 22 21 21 21 21 21 21 21 21 21 21
24 23 23 23 22 22 22 22 22 22 22 22 22 22 22 22 22 23 23 23 23 23 23 23 23 23 23 23 23 22 23 23 23 23 23 23 23 23 23 23 23 23 23 23 23 23 23 23 23 24 24 24 24 23 23 23 22 22 22 22 22 22 22 23 23 23 23 22 22 22 22 22 21 22 22 21 21 21 21 21 21 21 21 21 21
24 23 23 23 22 22 22 22 22 22 22 22 22 22 22 22 22 22 23 23 23 23 23 23 23 23 23 22 22 22 22 22 22 22 22 23 23 23 23 22 23 23 23 23 23 23 23 23 23 23 23 23 23 23 23 22 22 22 22 22 22 22 22 23 24 23 23 23 22 22 22 22 22 22 22 22 22 21 21 21 21 21 21 21 21
24 23 23 22 23 23 23 23 23 22 22 22 22 22 22 22 22 22 23 23 23 23 23 23 23 23 22 22 22 22 22 22 22 22 22 22 23 23 22 22 22 22 22 22 23 23 23 23 23 23 23 23 23 23 22 22 22 22 22 22 22 22 22 23 24 23 23 23 22 22 22 22 22 22 22 22 22 22 21 22 21 21 21 21 21
24 23 23 23 23 23 23 23 23 23 22 22 22 22 22 22 22 23 23 23 23 22 22 22 22 22 22 22 22 22 22 22 22 22 22 22 22 23 22 22 22 22 22 22 23 23 23 23 22 23 23 23 22 22 22 22 22 22 22 22 22 22 21 22 24 23 23 23 23 22 21 22 22 22 22 22 22 22 22 22 22 21 21 21 22
24 23 23 23 23 22 23 23 23 23 23 22 22 23 23 22 22 23 23 23 23 22 22 22 22 22 22 22 22 22 22 22 22 22 22 22 22 22 22 22 23 22 23 23 23 23 22 22 22 22 22 22 22 22 22 22 22 22 22 22 22 22 21 22 23 24 23 23 23 23 22 22 22 22 22 22 22 22 22 22 22 22 21 21 22
24 23 23 23 22 22 22 22 22 22 22 22 22 23 23 23 22 23 23 22 22 22 22 23 22 21 22 22 22 22 22 22 22 22 22 22 22 22 22 22 23 23 23 23 23 23 22 22 22 22 22 22 22 22 22 22 22 22 22 22 22 22 22 21 22 23 23 24 24 24 24 22 22 22 22 22 22 22 22 21 21 21 21 21 21
24 23 22 22 22 22 22 22 22 22 23 23 22 22 22 22 23 22 22 22 22 22 22 23 22 21 21 22 22 22 22 22 22 22 22 22 22 22 22 22 23 23 23 23 23 23 22 22 22 22 22 22 22 22 22 22 22 22 22 22 22 23 23 21 21 22 23 23 24 24 24 22 23 23 23 22 22 22 21 21 21 21 22 21 21
24 22 22 22 22 22 22 22 22 22 22 23 22 22 22 22 22 22 22 22 22 22 22 22 22 21 21 22 22 21 22 22 22 22 22 22 22 22 23 23 23 23 23 23 23 22 22 22 22 22 22 22 22 22 22 22 22 22 22 23 23 23 22 22 21 21 21 22 23 23 23 23 22 23 23 23 22 22 22 21 21 22 22 22 21
24 23 22 22 22 22 22 22 22 22 22 22 22 22 22 22 22 22 22 21 21 21 22 22 22 22 21 21 22 21 21 21 21 22 22 22 22 22 23 22 23 23 23 23 23 22 22 23 22 22 22 22 22 22 22 22 22 22 23 23 23 23 22 22 22 21 21 21 22 22 23 22 22 23 23 23 23 22 22 22 22 22 22 22 22
24 23 23 23 22 22 22 22 22 22 22 22 21 22 22 21 21 21 21 22 22 21 22 22 22 21 21 22 21 21 21 21 21 22 22 22 22 23 23 23 23 23 23 23 22 22 22 22 22 22 22 22 22 22 22 22 22 22 23 23 23 23 23 22 22 22 22 21 21 22 22 22 22 22 23 23 23 23 22 22 22 22 22 22 22
24 24 23 23 23 22 22 22 21 21 21 21 21 22 22 21 21 21 21 22 22 21 21 21 21 22 22 22 21 21 21 21 22 22 22 22 22 23 23 23 23 23 23 22 22 22 22 22 22 22 22 22 22 22 22 22 22 22 23 23 23 23 23 23 22 22 22 22 22 22 22 22 22 22 22 23 23 23 23 22 22 22 22 22 22
24 24 23 23 23 23 23 22 22 21 21 21 21 22 22 21 21 21 21 21 21 21 21 21 21 21 21 21 21 22 21 22 22 22 22 22 22 23 23 23 23 23 23 23 23 22 22 22 22 22 22 22 22 23 23 23 23 23 23 23 23 23 23 23 22 22 22 22 21 22 22 22 22 22 22 23 23 24 23 23 22 22 22 22 22
24 24 24 23 23 22 23 23 22 22 22 21 21 22 22 22 21 21 21 21 22 21 21 21 21 21 21 21 21 22 22 22 22 22 22 22 22 23 23 23 23 23 23 23 23 22 22 23 23 23 23 22 22 23 23 23 23 23 23 23 23 22 23 22 22 22 22 22 22 22 22 22 22 22 22 22 23 23 23 23 22 22 22 22 22
24 24 24 23 23 22 22 23 23 23 23 22 21 22 21 21 21 21 21 21 21 21 21 21 21 21 21 21 21 22 22 22 22 22 22 23 23 23 23 23 23 23 24 24 23 22 23 23 23 23 23 23 23 23 23 23 23 23 23 23 23 22 22 22 22 22 23 22 22 22 22 22 21 21 22 22 23 23 23 23 22 22 22 22 22
24 24 24 23 23 22 22 23 23 23 23 22 21 21 21 21 21 21 21 21 21 20 21 22 21 21 21 21 22 22 22 22 22 22 23 23 23 23 23 23 24 24 24 24 23 23 23 23 23 23 23 23 23 23 23 23 23 23 23 23 23 23 23 22 22 22 23 22 22 22 22 22 21 21 22 22 22 23 23 23 23 22 22 22 22
24 24 24 24 23 23 22 23 24 24 24 23 22 22 21 21 21 21 21 21 21 20 21 21 22 21 21 21 21 22 22 22 22 22 23 23 22 23 23 24 24 25 25 24 23 23 23 23 23 23 23 23 23 23 23 23 23 23 23 23 23 23 23 22 22 22 22 23 22 22 22 22 22 22 22 22 22 22 22 22 23 23 22 22 22
25 25 24 24 24 23 23 23 24 24 24 24 23 23 23 22 21 21 21 21 21 21 21 21 21 21 21 21 21 22 22 22 22 22 22 22 22 23 24 24 24 24 24 24 24 23 23 23 24 24 24 24 24 24 24 24 23 23 23 23 23 23 22 22 22 22 22 22 23 23 22 22 22 22 22 22 22 22 22 22 22 23 22 22 22
26 25 24 24 24 24 23 23 23 23 24 24 23 23 23 23 22 22 22 22 21 21 21 21 22 22 22 22 21 21 22 22 22 22 23 23 23 24 24 24 24 24 24 24 23 23 23 23 23 24 24 24 24 24 24 24 23 23 23 23 22 22 22 22 22 23 22 22 23 23 22 22 22 22 22 22 22 22 22 22 22 22 23 23 22
26 26 25 25 25 24 24 23 23 23 24 24 24 24 24 23 23 23 23 23 22 22 22 22 22 23 22 22 22 22 22 22 23 23 23 24 24 23 23 24 24 24 24 24 24 23 23 23 24 24 24 24 25 24 24 24 23 23 23 23 23 22 22 22 22 23 22 22 22 22 22 22 22 22 22 22 22 22 22 22 22 22 22 23 22
26 26 26 26 26 25 24 24 24 23 23 24 24 24 24 24 24 24 24 24 23 23 23 23 23 23 23 23 23 23 23 23 23 24 24 24 24 23 23 24 24 23 24 24 24 24 24 24 25 25 24 25 25 24 24 24 23 23 23 23 23 23 22 22 23 23 23 22 22 22 22 22 22 23 22 22 22 22 22 22 22 22 22 22 22
27 26 26 26 26 25 25 24 24 23 23 24 24 24 24 24 24 24 24 24 24 24 24 24 23 23 23 23 24 24 24 24 23 23 24 24 24 24 24 25 24 24 24 24 25 25 25 25 25 25 25 25 25 24 24 24 24 24 24 24 24 23 23 22 22 23 23 22 22 22 22 22 22 23 23 22 22 22 22 22 22 22 22 22 22
27 26 26 26 26 26 26 25 24 24 24 23 24 24 24 24 23 24 24 24 24 24 24 24 24 24 23 23 24 24 24 24 24 24 24 25 25 25 25 26 25 25 25 25 25 25 26 26 25 26 26 26 26 25 25 24 24 24 24 24 24 24 23 23 22 22 23 22 22 23 23 23 22 22 23 23 23 22 22 22 21 21 21 22 21
27 27 27 27 27 27 26 25 25 24 24 24 23 24 25 24 24 24 24 24 24 24 23 23 23 23 23 23 23 24 24 24 24 25 25 26 26 26 27 27 27 27 27 26 26 26 26 26 26 26 26 26 26 26 25 25 25 25 25 24 24 23 23 23 23 22 23 23 23 23 23 23 23 22 23 23 23 23 22 22 22 22 22 21 21
28 27 27 27 27 27 27 26 25 25 25 25 23 23 24 24 24 24 24 24 24 23 24 24 24 23 23 24 24 24 25 25 25 26 26 27 27 27 28 28 28 28 28 27 27 26 26 26 26 25 25 25 26 26 25 25 25 25 25 25 24 23 23 23 23 22 23 23 23 23 23 23 23 23 22 23 23 23 23 22 22 22 22 21 21
28 28 28 27 27 27 27 26 26 25 25 25 24 23 23 23 24 24 24 24 24 24 24 24 24 24 24 24 24 24 25 25 26 27 27 27 27 28 28 28 29 29 28 28 27 26 26 25 26 26 25 25 25 25 25 25 25 25 25 25 25 23 23 23 23 23 23 23 23 23 23 23 23 23 22 22 23 23 23 22 22 22 22 21 21
29 29 29 28 27 27 27 26 26 26 26 26 25 25 25 24 24 24 24 24 24 24 24 23 24 24 24 24 24 24 24 25 27 27 28 28 28 28 28 28 28 29 29 28 27 27 26 25 26 26 24 24 25 25 25 25 25 25 26 25 25 24 23 23 23 23 24 23 23 23 23 23 23 23 22 22 22 22 22 22 22 21 21 22 22
29 28 29 29 28 28 27 27 26 26 26 26 26 26 26 26 25 25 25 24 24 25 25 24 24 25 24 24 24 25 25 26 26 27 27 28 28 28 28 28 28 28 28 28 28 28 27 26 26 26 24 23 25 26 25 25 25 25 25 25 25 24 23 23 23 24 24 24 23 23 23 23 23 23 23 23 23 23 22 22 21 22 22 22 22
28 28 29 29 29 29 27 27 26 26 26 26 26 26 27 26 26 26 26 25 25 26 26 26 26 26 25 25 25 25 26 26 26 26 27 27 28 28 28 28 28 28 28 28 28 28 28 27 27 27 26 25 24 25 25 25 25 25 25 25 25 24 23 23 23 24 24 24 24 23 23 23 23 23 23 23 23 23 22 21 22 22 22 22 22
29 28 29 29 29 29 28 27 27 27 27 26 26 26 27 27 27 27 26 26 26 26 27 27 27 26 26 25 25 25 25 25 25 26 26 27 28 28 28 28 28 28 28 28 28 28 27 27 27 28 28 27 24 23 25 25 25 25 25 24 24 24 24 23 23 24 24 23 23 24 24 24 23 23 22 23 23 23 22 22 22 22 22 21 21
30 29 29 29 29 29 29 28 27 27 27 26 26 26 26 27 27 27 26 26 27 27 27 27 28 27 27 26 26 25 25 25 25 26 26 27 28 28 28 28 28 28 27 28 28 28 28 27 28 28 28 28 26 24 24 25 25 25 25 24 24 24 24 24 24 24 24 23 23 24 24 23 23 23 22 23 22 23 22 22 22 21 21 21 21
31 30 30 29 30 29 29 29 27 27 27 26 26 26 26 26 26 27 26 26 27 27 27 28 28 28 28 27 26 25 25 25 25 25 26 26 27 28 28 28 27 27 27 28 28 28 28 27 27 28 28 28 28 26 23 24 25 24 23 23 23 24 23 23 24 24 24 24 24 23 23 23 23 22 22 22 22 22 22 22 21 21 21 21 21
31 30 30 30 30 29 29 28 28 27 27 26 26 26 26 26 26 26 26 26 26 27 27 27 28 28 28 27 26 25 25 25 25 25 26 26 27 27 27 27 27 27 27 27 28 28 27 27 27 27 28 27 28 27 24 23 24 23 23 24 23 24 23 22 24 24 24 23 23 23 23 23 23 22 22 22 22 22 22 22 22 22 22 22 22
30 30 30 30 29 29 29 28 28 27 26 26 26 26 26 26 26 27 26 26 26 27 27 27 28 28 28 27 26 26 25 25 25 24 25 25 26 27 27 27 27 27 27 27 27 27 27 27 27 27 27 28 28 28 26 24 23 22 24 25 23 24 23 22 22 24 24 23 23 23 23 23 22 22 22 22 22 22 22 22 22 22 22 22 22
30 30 30 30 29 29 29 28 28 27 26 26 25 26 26 26 26 27 27 26 26 27 27 27 28 28 28 27 26 26 25 25 25 24 25 25 26 26 26 27 27 27 27 27 27 27 27 26 27 27 27 28 28 28 27 25 23 23 24 24 24 24 24 23 23 23 23 23 23 23 23 22 22 22 22 22 22 22 22 22 22 22 22 22 22
30 29 30 30 29 29 29 28 28 27 26 26 26 26 27 26 27 27 27 27 26 27 27 27 28 29 29 27 26 26 25 25 24 25 25 25 25 26 26 26 26 26 26 26 26 26 26 26 27 27 27 28 28 28 27 26 25 25 24 23 23 24 24 24 24 24 24 23 23 23 23 22 22 23 23 22 22 22 22 22 22 22 22 22 22
30 29 29 29 29 29 28 28 28 27 27 26 26 26 27 27 27 28 28 27 27 27 27 28 28 29 29 27 26 26 25 25 25 25 25 25 25 25 26 26 26 26 26 26 26 26 26 27 27 27 28 28 28 28 27 26 27 26 25 24 23 24 24 24 24 24 24 24 23 23 22 22 22 23 23 23 23 23 22 22 22 22 22 22 22
29 29 29 29 28 28 28 28 28 27 27 26 26 27 27 27 27 28 28 28 28 27 27 28 28 29 28 27 26 26 25 25 25 25 25 25 26 26 26 26 26 26 26 26 26 26 27 27 27 28 28 28 28 28 27 27 28 27 26 26 25 24 24 24 24 24 24 24 23 23 23 23 23 23 23 23 23 22 22 22 22 22 22 23 22
29 29 28 28 28 28 27 27 27 27 27 26 26 27 27 27 27 27 28 28 28 28 27 28 28 29 28 27 27 26 25 25 25 25 26 26 26 26 26 26 26 26 26 26 26 27 27 27 28 28 28 28 27 28 28 27 27 27 27 27 26 25 25 25 24 24 24 24 23 23 24 23 23 23 23 23 23 22 22 22 22 22 22 22 23
29 29 28 28 28 28 27 27 27 27 27 27 26 27 27 27 27 27 27 28 28 28 28 28 28 28 29 28 27 26 26 26 26 26 26 26 26 26 25 25 26 26 26 26 26 27 27 27 28 28 28 28 28 27 28 28 27 27 27 27 26 26 26 26 25 25 24 24 23 23 23 24 23 23 23 23 23 23 22 22 22 23 23 23 23
28 29 28 28 28 28 27 26 26 27 27 27 26 26 27 26 26 26 27 27 27 27 27 28 28 28 28 29 28 27 26 26 26 26 26 26 26 25 25 25 25 26 26 26 26 27 27 27 27 28 28 27 27 27 27 27 27 27 27 27 27 26 27 26 26 25 24 24 23 22 22 23 23 23 23 23 23 23 22 22 23 23 23 23 23
28 28 28 28 28 28 27 27 26 26 27 26 26 26 26 26 26 26 27 27 27 27 27 27 28 28 28 28 28 27 27 26 26 26 26 27 26 25 25 25 25 26 26 26 27 27 27 27 27 27 27 27 26 27 27 27 27 27 28 27 27 26 26 26 26 25 24 24 23 22 22 22 23 23 23 22 23 23 22 22 23 23 23 23 23
28 28 28 28 28 28 27 27 26 26 26 26 26 26 26 26 26 26 27 27 27 27 27 27 27 27 27 27 27 27 26 26 26 26 26 26 26 26 25 25 25 25 26 26 27 27 27 26 26 26 26 26 26 27 27 27 27 28 28 27 27 27 26 26 26 25 25 25 24 23 22 22 22 23 23 22 22 23 22 22 23 23 22 23 23
27 27 27 27 27 27 27 26 26 26 26 26 26 26 26 26 26 26 26 26 27 27 26 26 26 26 26 26 26 26 26 26 26 26 26 26 26 26 26 25 25 25 26 26 26 27 27 26 26 26 26 26 26 26 26 27 27 27 27 27 27 27 26 25 25 25 25 25 25 24 23 23 22 22 23 23 23 23 23 22 22 22 21 22 23
27 26 27 27 27 26 26 26 26 26 26 26 26 25 26 26 26 26 26 26 26 26 25 25 25 25 25 26 25 25 25 25 26 25 26 26 26 26 26 26 25 25 25 26 26 26 26 26 26 26 26 26 26 26 26 27 27 27 27 27 27 27 26 25 25 25 26 25 25 24 23 24 24 23 23 23 23 23 23 22 22 22 22 22 23
Height
788 789 791 791 794 795 797 797 799 800 802 804 804 806 806 808 809 811 812 814 815 816 817 818 819 820 821 821 822 823 824 824 825 826 827 828 828 829 829 830 831 831 832 831 832 833 833 833 834 834 834 835 836 836 836 837 837 838 839 839 839 839 839 840 840 840 841 841 841 842 843 843 843 843 844 844 844 844 844 845 845 845 845 846 847
787 789 791 792 794 795 797 797 799 801 803 804 805 807 808 810 811 813 813 815 817 818 819 820 821 821 822 823 824 825 825 826 827 828 828 829 829 830 831 831 832 832 833 833 833 834 835 835 835 835 836 836 837 837 838 838 839 840 840 840 840 840 841 841 842 842 842 842 843 843 844 844 844 845 845 845 845 845 845 845 845 845 845 846 847
787 789 791 792 795 795 797 798 800 801 803 805 806 808 809 811 812 814 815 816 818 819 821 822 823 823 824 825 826 826 827 828 829 829 830 830 830 831 832 833 833 833 834 834 834 835 836 836 836 836 837 837 838 839 839 840 840 841 842 842 842 841 842 842 843 843 844 843 844 844 844 845 846 846 846 846 846 847 846 846 846 846 846 847 847
786 788 790 792 794 796 798 799 801 802 805 806 807 809 810 812 813 815 816 818 819 821 822 823 824 825 825 826 827 828 828 829 830 831 831 832 832 832 833 834 834 834 835 835 835 836 837 837 837 837 838 838 839 840 840 841 842 843 844 844 843 842 843 843 844 844 844 844 845 845 845 846 846 847 847 847 847 848 847 847 847 847 847 847 848
787 788 790 792 794 796 797 799 801 803 805 807 808 810 811 812 814 815 817 819 820 822 823 825 826 826 827 827 828 829 830 830 831 832 832 833 833 833 834 834 835 835 836 836 836 837 837 838 838 838 838 839 840 841 842 842 843 845 845 845 844 844 843 844 844 845 845 845 846 846 846 847 847 848 848 848 848 849 849 848 848 848 848 848 849
787 788 790 792 794 795 797 799 801 803 806 808 809 810 812 813 815 816 818 820 821 823 824 826 827 828 828 829 830 830 831 832 833 834 834 834 834 834 835 835 836 836 837 837 837 837 838 838 838 838 839 840 841 842 843 843 845 845 846 846 846 845 844 845 845 846 846 846 847 846 847 848 848 848 849 849 850 850 850 850 850 850 849 850 850
787 789 792 793 795 796 798 800 802 805 807 808 810 811 812 814 816 818 820 821 823 824 826 827 828 829 830 830 831 831 832 833 834 835 835 835 835 835 836 836 837 837 837 837 838 838 839 839 839 839 840 841 842 843 844 844 845 846 847 847 847 846 846 846 846 847 847 848 848 847 848 849 849 849 850 850 850 851 851 852 851 851 851 851 851
787 789 791 794 795 797 799 801 804 806 808 809 810 812 813 815 817 819 821 822 824 826 827 828 829 830 831 832 832 833 833 834 835 835 836 836 836 836 836 837 838 838 838 838 838 839 840 840 840 840 841 842 843 844 845 845 846 847 848 848 848 848 847 847 847 847 847 849 848 848 849 849 850 850 850 850 851 851 852 852 852 852 852 852 852
787 788 790 793 795 797 799 802 804 806 808 810 811 812 814 816 817 819 821 822 824 826 828 829 830 831 832 833 833 833 834 835 835 836 837 836 837 837 837 838 838 839 839 839 839 840 840 841 841 841 842 843 844 845 846 846 847 847 848 849 849 849 848 847 848 848 847 848 848 849 850 850 851 851 851 851 851 852 852 852 852 852 852 853 852
787 789 790 792 794 797 799 801 803 805 807 809 811 812 814 816 817 819 820 821 823 826 829 830 831 832 833 834 834 834 835 835 836 836 837 837 837 837 838 839 839 839 840 840 839 840 841 841 841 841 843 844 845 846 847 847 848 848 849 849 850 851 850 848 848 849 847 847 848 849 851 852 852 852 852 852 852 852 851 852 853 853 853 853 853
788 790 791 792 795 797 798 800 802 804 806 808 810 811 814 816 817 818 820 821 823 825 829 831 832 833 834 835 835 835 835 835 836 836 837 837 837 838 838 839 839 840 840 840 840 841 841 842 842 842 843 844 846 847 848 848 849 849 849 850 850 851 851 850 847 847 848 847 848 849 851 853 853 852 851 851 852 851 852 852 854 854 853 853 853
790 792 792 794 796 798 799 801 802 804 805 808 809 811 814 816 818 818 820 822 823 826 829 831 833 834 834 835 835 835 836 835 836 836 837 837 838 838 838 839 840 840 840 840 840 841 842 842 842 843 844 845 847 848 848 849 849 850 850 850 851 851 852 852 848 845 846 847 848 848 849 852 853 853 851 851 851 851 851 852 853 854 854 853 854
792 793 794 796 798 800 801 803 804 806 807 809 811 812 815 816 818 820 821 823 824 827 829 830 833 836 835 835 835 835 835 835 836 836 836 837 838 838 838 839 840 840 840 840 841 842 843 843 843 843 844 846 847 848 849 849 850 850 850 850 850 850 851 852 851 847 846 846 846 845 846 850 852 852 851 851 850 850 851 852 853 854 854 854 855
792 793 795 798 799 802 802 805 806 808 809 811 813 814 816 817 819 821 822 823 825 827 829 829 832 836 836 835 835 835 835 835 836 835 836 837 837 838 838 839 840 840 840 840 841 842 843 843 843 844 845 846 847 848 849 849 850 850 850 850 849 849 850 851 851 850 848 847 846 844 846 849 851 851 851 851 850 850 851 852 853 854 854 854 855
792 793 796 798 800 803 804 806 807 809 811 812 814 816 817 818 819 820 823 824 826 828 829 830 831 835 835 835 835 835 835 835 835 835 836 837 837 837 838 839 840 840 840 841 841 842 843 843 843 844 846 847 848 849 849 849 849 849 849 849 849 849 849 850 851 851 851 849 848 847 848 849 850 851 850 851 851 851 852 852 853 854 854 854 855
792 793 796 798 800 803 805 807 808 810 811 813 814 816 818 819 820 822 824 825 827 828 829 830 831 834 835 835 835 834 835 835 835 835 836 837 837 837 838 839 839 840 840 841 842 842 843 842 844 845 846 847 848 848 848 849 848 849 849 849 849 848 849 849 850 851 851 851 851 851 850 851 851 850 849 850 851 851 852 852 853 853 854 855 855
792 794 795 798 800 803 805 807 809 810 812 814 815 816 818 819 821 823 825 825 826 828 829 830 831 833 834 834 834 834 835 835 835 835 836 837 837 837 838 839 839 839 840 841 842 842 842 842 843 845 846 847 847 847 847 847 847 848 849 848 848 848 849 849 850 850 852 852 852 853 853 853 852 851 850 850 850 851 851 852 853 853 854 855 856
793 794 796 798 799 801 804 806 807 810 812 813 815 816 818 819 821 822 824 825 826 828 828 829 830 832 832 833 833 834 835 834 835 835 836 836 837 837 838 839 839 839 840 841 842 842 842 842 843 845 845 846 846 846 846 846 847 848 848 848 847 847 848 849 849 850 851 852 853 852 853 854 853 852 851 850 850 850 851 851 852 853 853 854 855
793 795 796 798 799 801 802 805 806 808 811 812 814 815 817 819 820 821 822 824 825 826 827 828 828 830 830 831 832 833 834 834 834 835 835 836 837 837 838 839 839 839 840 841 841 842 842 842 843 844 845 845 845 845 846 846 846 847 848 847 847 847 847 848 848 849 850 851 852 852 852 853 853 852 851 850 850 850 850 851 852 853 853 854 855
793 795 797 799 800 802 802 804 806 807 810 811 813 814 816 818 819 820 821 822 824 825 826 827 827 828 829 830 832 832 833 833 834 834 835 836 836 837 838 839 839 839 840 840 841 842 842 842 843 844 844 844 845 845 845 846 846 846 846 846 846 846 846 847 847 847 848 849 851 851 851 851 852 852 850 850 850 850 850 851 851 852 853 854 855
793 794 796 799 800 802 802 804 805 807 809 810 812 814 816 817 818 820 821 822 823 824 825 827 827 828 829 830 831 832 832 833 833 834 835 835 836 837 838 839 838 838 839 840 841 842 842 842 843 844 844 844 844 845 845 845 844 844 845 844 844 845 845 845 845 845 846 847 849 850 850 850 851 851 850 850 851 851 851 851 851 852 853 853 854
793 795 797 798 800 801 801 804 805 807 808 810 811 813 816 817 818 819 821 822 823 824 825 827 828 828 829 829 830 831 832 833 833 834 835 835 836 837 838 838 837 837 838 840 841 842 842 842 843 844 843 843 844 844 844 843 843 843 843 843 843 843 843 844 843 843 844 845 846 847 848 848 849 849 849 850 850 851 851 851 851 852 852 853 854
792 794 796 798 800 801 801 803 804 806 807 808 810 812 815 816 818 819 820 822 823 825 825 827 828 828 829 829 830 831 832 833 833 834 835 836 837 837 837 837 837 838 839 840 842 842 842 842 842 843 842 842 843 843 843 842 842 842 842 842 842 842 842 842 842 842 842 843 844 845 845 846 847 847 848 849 849 850 850 851 851 851 852 853 854
792 793 795 798 800 801 802 802 804 805 806 807 809 811 813 815 817 818 820 822 823 824 825 827 827 828 829 830 831 831 832 832 834 835 835 836 836 836 836 837 838 839 839 840 841 841 842 842 841 841 841 842 842 842 842 842 842 842 842 841 841 841 841 841 841 841 841 842 842 842 842 843 844 845 846 846 847 848 849 849 850 850 851 852 853
790 792 794 797 799 801 802 803 804 805 806 807 809 811 812 814 816 818 820 821 823 824 825 826 827 828 829 830 831 832 833 832 833 834 834 834 835 835 836 837 839 839 839 839 839 840 841 841 840 840 841 841 841 841 841 841 841 842 842 841 841 841 841 840 840 839 839 840 839 839 840 840 841 842 844 844 845 846 847 847 848 849 850 851 852
789 791 793 796 798 800 802 803 805 806 807 808 809 811 812 814 815 817 819 820 822 823 824 825 826 828 828 830 830 831 832 832 832 832 833 834 834 836 836 837 838 839 839 838 839 840 840 841 840 841 840 840 840 840 841 840 841 841 841 840 840 840 840 839 838 837 837 838 838 839 840 840 840 841 842 843 843 844 845 846 846 847 848 849 850
788 790 792 795 797 799 801 803 805 806 807 808 809 811 811 813 815 817 818 819 821 822 823 824 825 827 828 828 829 830 830 831 832 832 833 834 835 836 837 837 837 838 838 838 839 839 840 840 840 840 840 839 839 839 840 840 840 840 840 838 838 838 838 838 837 836 835 836 837 838 839 840 841 840 840 841 842 842 842 844 845 846 847 848 849
787 789 792 794 796 798 800 803 805 807 807 808 809 810 811 813 815 816 818 819 821 821 822 824 825 826 827 828 828 829 830 831 832 833 834 834 834 835 835 836 836 837 838 838 839 839 839 840 840 840 839 839 838 839 839 840 840 839 838 837 837 836 837 837 837 836 835 836 836 837 837 839 841 840 839 839 839 839 841 842 844 845 846 847 848
785 788 791 792 794 796 799 802 804 806 807 808 809 809 810 813 815 816 818 820 821 822 823 824 825 826 827 828 828 829 830 831 832 833 833 834 834 834 834 834 835 837 837 838 838 839 839 840 840 839 839 838 838 838 838 839 838 836 836 836 837 836 836 836 836 836 836 836 835 834 834 836 838 838 837 836 836 837 839 841 842 843 845 846 847
784 786 789 791 793 795 798 800 803 805 807 809 810 809 809 811 815 816 818 820 822 823 824 825 826 827 828 829 830 830 830 830 831 832 833 834 834 834 834 834 835 837 837 837 838 838 839 839 840 839 839 838 838 837 837 838 836 835 836 837 836 836 835 835 835 835 835 834 833 833 833 833 834 835 835 834 833 835 837 838 840 841 843 844 845
783 785 787 789 792 794 797 799 802 804 806 809 811 811 811 812 814 817 819 819 820 822 823 825 826 827 828 828 829 829 829 830 832 832 833 834 834 834 834 834 835 836 836 836 837 838 839 840 840 839 839 839 838 836 836 836 834 834 835 836 835 834 834 834 834 834 833 832 831 831 831 832 832 833 833 833 832 833 835 836 837 839 841 842 844
782 783 786 788 791 793 796 798 801 803 805 808 810 813 814 815 816 818 820 819 818 820 822 824 825 826 827 827 827 828 830 830 832 833 832 833 833 834 834 834 835 835 836 835 835 837 838 839 839 838 838 838 837 836 836 835 834 835 835 834 834 833 833 833 832 832 831 829 829 829 829 830 831 831 832 832 831 832 833 834 836 837 839 840 842
781 782 784 786 790 792 795 797 799 802 804 806 808 811 813 815 817 819 821 820 820 821 823 825 826 827 828 828 829 830 831 831 831 831 831 832 832 833 833 833 834 834 835 836 836 836 837 838 837 836 837 837 836 836 836 835 834 835 834 834 834 833 832 831 831 830 828 827 827 826 827 828 828 829 830 830 830 831 831 833 835 836 837 838 839
779 781 783 784 787 790 793 796 798 800 802 804 807 809 811 813 816 818 820 821 822 823 824 825 827 827 828 828 829 829 830 830 830 830 830 831 831 832 832 832 834 834 835 836 837 837 837 838 837 836 836 836 836 836 836 835 835 834 834 834 833 832 831 830 830 829 827 825 825 825 825 826 827 827 828 829 829 829 831 834 834 834 834 835 837
778 781 782 783 785 787 791 794 796 799 800 803 805 807 809 812 814 816 818 819 821 822 823 824 825 826 826 826 827 827 828 829 829 829 829 830 831 831 832 832 833 833 834 836 836 837 837 837 837 836 836 836 836 836 836 836 835 834 833 833 833 832 830 829 829 828 826 824 825 825 825 826 826 826 827 827 828 828 830 833 833 831 833 834 835
775 779 781 782 784 786 789 792 795 797 799 802 804 806 808 810 812 814 815 817 819 820 821 822 823 824 824 824 825 826 827 828 828 828 829 829 830 830 831 832 832 833 834 835 836 836 836 836 836 835 836 836 836 835 836 836 835 834 833 833 833 831 829 828 829 829 827 826 826 825 825 825 825 826 827 827 827 827 829 831 831 830 831 833 833
773 776 779 781 783 785 788 790 793 796 798 801 803 805 807 809 811 812 814 815 817 818 819 820 820 821 822 822 824 825 826 827 827 827 828 829 830 830 830 831 832 833 834 834 835 835 835 835 835 835 834 835 835 835 836 836 835 835 835 835 834 832 830 829 829 829 828 827 826 825 825 825 826 826 827 827 827 828 828 829 830 830 830 831 832
773 774 777 780 781 784 787 788 792 795 798 800 802 805 806 808 810 811 813 814 815 817 817 818 818 819 820 820 822 824 825 825 826 827 827 829 829 830 830 831 832 833 833 834 834 834 834 834 834 834 834 834 834 835 838 837 835 836 837 836 835 833 832 832 829 827 827 827 827 826 826 825 826 826 827 828 828 828 828 829 829 829 829 830 830
772 774 776 778 780 783 786 788 791 794 797 799 802 804 805 808 809 810 812 813 814 815 816 817 817 818 818 819 820 823 825 825 826 826 827 828 829 830 830 831 832 832 833 833 833 833 833 833 833 833 833 834 833 834 837 837 838 839 836 834 835 834 834 834 832 828 828 828 829 828 827 826 826 826 827 827 828 828 828 828 828 828 828 829 829
773 774 776 778 780 783 785 788 791 793 796 799 801 803 804 806 807 809 810 812 814 815 816 816 816 817 817 818 820 822 824 825 825 826 827 828 829 830 830 831 831 832 832 832 833 833 833 833 832 832 832 833 833 833 834 836 840 839 834 834 835 835 835 835 834 832 829 829 830 829 828 827 826 827 827 827 828 827 827 828 827 827 827 828 828
773 774 776 777 780 782 785 787 790 792 795 797 799 801 802 804 806 807 809 810 813 814 815 816 815 816 817 816 819 822 823 824 825 826 827 828 828 829 829 830 830 831 831 832 832 832 832 832 832 832 832 831 832 832 832 834 837 835 834 835 835 834 835 835 835 834 832 831 830 830 828 827 826 826 827 827 826 827 827 827 827 826 827 827 828
773 775 776 778 780 782 784 787 789 792 794 796 798 799 801 803 804 805 807 809 811 813 814 815 815 815 816 816 818 821 822 823 825 825 827 827 828 828 828 829 829 830 830 831 832 832 831 832 832 831 831 831 831 830 831 833 834 832 833 835 835 835 835 834 835 834 833 832 831 830 829 827 826 825 826 826 826 826 826 826 826 826 826 827 827
773 776 777 778 781 782 784 786 789 791 793 795 797 798 800 801 802 803 805 807 809 811 812 813 814 814 815 816 818 820 821 823 824 825 826 826 827 828 828 828 828 829 830 830 831 831 831 831 831 831 830 830 830 830 831 832 831 831 832 835 836 837 837 836 835 834 833 832 832 831 829 828 826 825 825 826 826 826 826 826 826 826 826 827 827
773 776 778 779 781 783 784 786 788 790 792 794 796 797 799 800 802 802 804 805 807 809 811 812 813 813 813 815 817 818 820 822 823 824 825 826 826 827 827 827 827 828 829 829 830 830 830 830 829 830 829 830 830 829 830 831 830 830 832 833 834 837 841 838 834 834 833 832 832 830 829 829 828 827 826 827 826 825 825 826 826 826 827 827 827
774 776 778 779 781 782 784 786 788 790 791 793 795 796 798 799 800 802 803 804 805 807 809 811 811 812 813 814 816 818 819 821 822 823 824 825 825 826 826 826 826 827 828 829 829 829 829 829 828 828 829 829 829 829 829 830 830 830 830 832 834 838 840 836 835 835 833 833 833 829 827 828 829 828 828 827 826 825 825 826 825 825 826 827 827
773 775 778 779 780 782 784 786 787 789 791 792 794 795 796 798 800 801 802 802 804 806 807 809 810 811 812 813 815 817 818 820 821 822 823 824 824 824 825 825 826 826 827 828 828 828 828 828 828 828 828 828 829 829 829 829 830 830 830 830 833 836 835 834 836 837 834 833 833 831 828 827 827 827 827 826 825 824 825 826 825 824 826 827 827
771 774 777 778 780 782 783 785 787 788 790 791 793 795 796 797 799 800 801 802 803 805 806 808 808 810 811 812 813 815 817 819 821 821 822 823 823 823 824 824 825 825 826 827 827 827 827 827 827 827 827 827 828 828 829 829 829 829 830 829 830 831 832 833 835 837 837 835 834 833 831 827 826 826 825 825 824 823 824 825 825 825 827 828 827
770 772 775 777 778 780 782 784 786 787 789 790 792 793 795 797 798 800 801 801 803 804 806 807 808 809 810 810 811 814 816 818 820 820 821 822 822 822 823 823 824 824 825 826 826 826 826 826 826 826 826 827 827 828 829 829 828 828 828 829 829 830 831 832 832 833 835 836 835 834 832 829 827 826 826 826 825 824 824 824 822 824 828 828 827
769 771 773 776 777 779 781 783 785 786 788 789 790 792 794 796 798 799 800 801 802 804 805 806 807 808 808 809 809 810 812 815 817 819 820 821 821 821 822 822 823 823 824 825 825 825 825 825 825 826 826 826 827 828 828 828 828 827 827 827 828 829 830 831 831 830 830 833 834 834 833 831 828 827 827 827 828 827 826 825 821 824 828 828 827
767 769 771 774 776 778 780 782 783 785 787 788 790 792 794 795 797 798 799 801 802 803 804 805 806 806 807 808 809 808 810 812 814 816 819 820 820 820 821 821 822 822 823 824 824 824 824 824 824 825 825 826 826 827 827 827 827 826 826 827 827 828 829 830 830 829 828 830 832 832 832 831 829 828 827 827 829 828 828 828 826 827 830 829 828
766 769 771 773 775 776 779 781 782 784 786 787 789 791 793 795 796 798 799 801 802 802 803 804 805 806 806 807 808 808 809 811 812 814 817 819 819 820 820 820 821 821 822 823 823 824 824 824 824 824 825 825 825 826 826 826 826 826 825 826 825 825 827 827 828 829 827 827 829 830 830 830 829 829 827 828 828 829 829 829 829 829 830 829 828
Wind_Speed
16 17 17 18 20 19 19 18 17 17 18 19 19 19 18 20 23 23 24 24 23 22 21 20 20 20 20 19 19 18 18 18 18 17 17 17 17 16 16 16 17 17 16 16 16 17 17 17 17 16 16 15 14 15 16 17 17 17 18 18 17 17 17 16 15 15 14 14 15 15 14 15 17 17 16 15 14 15 15 15 14 14 14 15 15
18 19 19 19 20 19 19 18 18 17 17 19 19 19 18 20 22 23 23 23 23 21 20 19 19 19 18 18 17 17 17 17 17 16 16 15 15 15 15 15 16 16 15 16 16 16 16 16 16 15 14 13 13 13 15 16 15 14 13 14 15 15 15 15 14 14 14 14 14 14 14 14 14 14 14 13 13 14 15 13 13 14 14 15 16
19 19 20 21 20 20 20 19 19 18 18 19 19 18 18 19 21 21 22 22 22 20 18 18 18 18 17 16 15 15 15 15 15 15 15 14 14 14 13 14 14 15 14 14 14 14 14 14 14 14 13 13 13 12 13 13 12 10 10 10 10 12 12 13 12 11 13 14 13 12 12 13 12 11 11 10 10 11 13 13 13 16 17 16 17
19 18 20 22 20 20 20 20 19 19 19 19 19 17 17 17 19 20 21 21 20 19 18 17 17 16 15 14 13 13 13 14 13 13 14 14 13 13 12 13 13 13 13 13 12 12 12 12 12 12 11 11 12 12 12 10 9 9 9 8 8 8 9 9 9 9 10 11 12 11 10 11 12 11 11 9 9 11 12 13 14 17 18 18 18
21 18 19 20 19 20 20 20 20 20 19 18 17 17 17 15 17 19 19 19 19 18 17 16 15 13 12 12 12 12 12 13 12 12 12 12 12 12 11 12 12 12 12 11 11 10 10 9 10 10 9 9 10 10 10 9 8 7 7 7 7 7 7 6 6 8 8 10 12 13 10 8 11 12 10 9 10 11 11 13 14 15 17 17 18
21 19 19 19 18 20 19 19 19 19 18 17 17 17 17 15 16 17 17 17 17 18 16 14 13 12 11 11 12 11 12 12 11 11 11 11 11 11 11 11 11 11 11 10 9 9 8 8 8 8 8 7 7 7 7 7 6 6 5 6 6 5 5 4 5 6 6 8 10 12 11 8 9 11 10 10 10 10 11 12 13 13 14 15 15
20 21 20 19 19 21 20 19 19 19 18 17 17 16 16 16 17 16 16 16 16 17 15 13 11 11 11 11 12 11 11 11 11 10 10 10 10 10 10 10 10 9 9 9 8 8 7 6 6 7 6 6 5 5 5 5 4 4 3 4 5 4 4 3 3 3 4 5 6 9 10 7 6 9 9 10 11 11 11 12 13 14 13 13 13
19 19 19 19 19 22 22 20 19 19 19 18 18 17 16 16 17 17 16 15 15 15 15 13 11 11 11 12 12 12 11 11 11 10 10 10 10 10 10 9 8 8 8 8 7 6 6 5 5 5 5 5 4 3 3 3 3 2 2 3 3 4 4 2 2 1 1 2 4 6 6 6 7 7 9 10 11 12 13 13 13 14 14 13 11
18 17 17 16 17 21 20 20 20 19 19 19 19 18 16 16 17 19 17 16 15 14 14 14 12 12 12 12 11 11 11 11 11 10 10 9 9 9 9 8 7 7 6 7 7 6 5 4 4 4 4 4 3 3 2 2 2 1 1 1 2 4 3 1 3 1 4 3 4 5 3 6 7 6 8 10 12 13 14 14 13 13 13 12 11
19 17 16 14 16 19 17 18 17 18 19 18 19 19 18 17 18 19 19 18 17 14 13 13 13 13 12 11 11 11 11 11 11 10 9 9 9 9 8 7 7 7 6 6 6 5 4 3 3 3 3 3 2 2 2 1 1 1 1 1 1 3 3 1 1 2 4 1 2 3 4 6 6 5 8 11 13 13 13 12 11 12 13 13 11
20 20 17 15 19 18 17 16 15 16 16 17 18 19 19 17 18 19 19 17 17 15 13 12 12 12 12 11 11 11 11 11 11 10 9 9 9 8 8 7 7 7 6 6 5 5 4 3 2 2 2 2 2 2 1 1 1 2 2 1 1 1 3 3 0 3 3 2 3 2 5 4 5 7 8 12 13 13 11 10 11 11 12 13 11
21 21 18 19 21 19 18 17 16 15 15 17 16 17 19 18 18 18 18 17 17 16 15 13 11 11 12 11 11 11 11 11 11 11 10 9 9 8 8 7 7 7 6 6 5 5 4 3 2 2 2 2 1 1 1 1 2 2 2 1 1 1 3 5 1 5 4 1 4 4 6 7 7 9 9 12 13 12 11 11 13 12 11 12 11
22 22 21 22 22 19 19 18 17 17 16 17 17 17 19 18 18 17 18 18 17 17 16 15 12 10 11 11 12 12 11 12 12 12 10 9 8 8 8 7 6 6 5 4 3 4 3 3 3 2 2 2 2 2 2 2 2 3 2 2 1 0 3 6 3 3 3 2 6 7 9 11 11 11 11 11 12 13 11 12 13 12 11 11 11
23 23 23 22 22 21 19 18 18 17 18 19 19 19 19 19 18 17 17 18 18 17 16 16 14 12 12 12 13 13 12 12 12 12 11 9 8 9 8 8 7 5 5 4 3 3 3 3 2 2 2 2 2 2 2 3 3 4 3 3 2 1 1 4 4 2 0 1 6 9 10 12 12 11 11 11 11 12 12 12 13 12 11 11 12
24 25 23 23 22 22 20 20 19 19 19 19 19 19 19 18 18 18 18 18 17 17 16 16 16 14 13 13 14 13 12 12 12 12 12 10 9 10 10 8 7 6 5 4 4 4 4 3 2 2 2 2 2 3 3 4 5 5 4 4 3 2 1 1 1 2 2 2 5 6 10 12 13 12 10 11 11 11 11 13 12 11 12 12 13
24 24 23 23 22 21 21 21 20 19 19 19 19 18 19 19 19 18 18 18 17 16 16 15 15 15 14 13 13 12 11 12 13 13 12 11 9 10 11 9 8 6 6 5 5 5 3 2 2 2 2 2 3 4 5 5 6 5 5 5 4 3 2 2 2 1 3 3 3 4 8 11 14 12 9 10 12 11 11 12 12 12 12 13 13
22 23 22 22 21 20 20 20 21 20 19 18 19 19 19 20 20 20 19 19 17 17 16 15 15 14 14 13 12 11 11 11 13 14 13 12 10 10 11 9 8 7 7 6 6 5 3 3 3 3 3 4 4 5 6 6 6 6 6 6 5 4 3 3 3 3 2 2 4 6 8 10 13 12 9 11 12 11 11 12 12 12 12 13 14
20 23 22 21 19 18 19 20 20 20 19 18 18 18 19 19 19 18 18 18 17 16 16 15 15 15 15 14 13 12 11 12 14 15 13 13 11 10 10 9 8 8 7 7 6 4 3 4 5 5 6 6 7 7 7 8 7 7 7 6 6 4 4 4 4 5 3 2 4 6 7 9 10 12 12 12 12 11 11 12 12 12 12 12 13
18 21 22 21 19 18 18 20 20 18 18 17 17 17 16 17 16 16 16 16 16 15 15 14 15 16 15 14 13 13 12 13 14 14 13 12 11 10 9 9 9 9 7 6 5 3 5 7 7 8 8 8 8 8 8 9 9 8 7 6 6 5 5 5 4 6 5 3 4 5 8 8 9 12 12 12 12 11 11 11 11 11 12 12 12
16 18 19 19 19 18 18 20 20 19 19 17 17 16 15 15 15 14 14 14 14 14 14 13 14 15 14 13 12 12 13 14 14 13 12 11 10 10 9 10 9 8 6 5 4 4 6 8 8 8 8 8 8 8 8 9 9 8 7 6 7 7 6 6 5 8 7 4 4 6 9 8 8 11 11 12 12 12 11 12 12 12 12 13 13
15 15 16 17 18 18 17 20 20 18 19 17 16 16 14 15 15 14 13 13 13 13 13 12 13 13 12 13 12 12 12 13 12 11 11 10 10 10 10 11 9 7 5 3 4 6 7 8 7 8 8 8 7 8 8 9 8 8 7 7 7 8 8 7 8 9 8 6 5 6 8 8 9 10 10 11 13 12 12 12 13 13 13 13 14
16 15 15 17 18 18 16 18 19 18 19 16 14 15 15 16 16 14 13 13 13 13 14 13 13 14 13 13 14 14 12 12 12 11 12 11 11 11 11 10 7 5 4 4 6 7 8 7 7 7 7 7 8 9 10 9 8 7 7 8 9 9 8 8 9 10 9 6 6 6 8 10 10 11 10 11 13 14 14 13 13 14 13 13 14
17 16 16 17 17 18 17 17 18 19 19 15 13 15 16 18 16 15 14 13 14 13 15 15 14 16 16 15 15 15 13 13 13 12 12 12 12 10 9 7 5 4 5 6 8 8 8 7 6 7 7 7 8 9 9 8 7 8 9 9 9 9 8 8 8 9 9 7 7 6 8 11 12 12 12 12 13 14 15 15 15 15 14 14 14
18 17 18 17 17 19 19 17 17 18 18 16 15 16 18 19 17 14 14 14 14 13 14 15 16 17 17 16 15 14 14 15 14 13 13 12 11 8 6 5 5 6 7 8 9 8 7 6 6 6 6 6 7 7 8 7 7 8 10 10 9 8 7 7 7 9 9 9 8 6 7 10 12 13 14 14 14 15 16 16 17 17 16 16 15
19 19 19 18 19 20 20 19 18 17 17 17 17 18 18 19 18 15 16 16 15 15 14 14 15 16 17 16 14 13 14 15 14 13 13 12 10 7 7 8 9 9 9 9 8 7 6 5 6 7 6 6 7 7 8 8 7 6 8 10 9 8 7 7 8 9 8 9 9 8 8 9 11 14 16 16 16 16 17 17 17 18 19 18 17
19 19 19 18 19 20 21 21 20 18 17 18 19 18 18 18 18 16 17 18 17 18 16 14 15 16 16 15 15 14 14 14 13 12 12 11 9 9 10 11 11 11 10 8 7 7 7 7 8 9 8 8 8 8 9 10 9 6 8 9 10 9 7 6 8 9 8 9 10 8 8 7 9 13 16 17 17 16 17 17 17 18 20 20 19
18 18 19 18 20 20 21 21 21 20 17 17 18 18 17 16 17 17 17 18 17 18 17 15 15 16 15 14 15 14 14 14 13 11 12 12 11 12 13 13 13 13 11 9 7 8 9 8 8 8 9 9 7 8 10 11 10 8 9 10 10 10 9 7 7 8 8 8 8 7 6 6 8 11 14 17 17 18 18 18 18 18 20 21 21
17 18 18 18 20 21 21 21 21 22 21 17 17 18 17 16 17 17 16 16 17 16 16 15 14 15 14 13 14 14 14 14 14 13 13 13 13 14 14 14 15 13 12 11 9 8 8 7 7 7 8 8 7 8 10 10 10 10 10 10 10 11 10 8 6 6 7 7 6 7 6 6 8 10 13 16 18 19 18 17 18 18 19 21 22
18 18 18 18 19 21 21 22 21 22 22 19 17 17 16 18 18 17 15 15 16 15 15 14 13 14 13 12 13 14 15 14 14 15 15 14 14 14 14 13 16 14 12 13 11 7 7 7 6 7 6 7 8 8 9 9 8 9 9 10 10 10 10 10 7 6 7 6 7 8 6 6 7 9 12 15 17 19 18 17 18 18 18 20 22
19 19 18 19 20 21 21 22 22 22 21 20 20 16 15 18 17 16 16 16 14 13 14 15 16 15 13 14 14 14 16 14 14 16 17 15 14 14 13 12 13 11 12 13 9 6 6 7 7 7 5 7 7 6 9 9 7 10 10 9 10 10 10 11 9 8 8 7 7 8 8 8 9 10 12 14 16 17 18 19 19 18 18 18 20
19 20 19 18 20 21 20 20 21 22 21 21 23 20 18 17 15 15 15 14 13 14 15 16 17 16 13 13 12 10 12 13 15 16 15 13 12 12 10 9 9 8 10 9 6 6 6 6 6 5 5 6 6 6 9 8 8 9 9 9 10 10 10 11 9 8 8 8 9 9 9 9 9 10 11 12 14 15 17 18 19 18 18 18 18
19 20 20 20 21 20 20 20 21 21 21 21 22 23 24 22 18 17 15 13 12 13 15 15 15 14 13 12 10 10 9 11 15 15 12 12 11 10 9 7 6 6 6 6 5 4 4 5 3 4 6 6 7 8 8 6 6 6 7 9 10 9 10 10 8 6 7 8 10 10 10 10 9 9 10 11 13 14 15 17 17 16 17 18 19
19 18 19 21 22 21 20 21 21 20 19 20 20 20 22 22 19 19 19 17 13 13 17 18 18 16 15 14 12 13 11 8 12 12 9 10 10 9 9 7 6 5 3 4 4 3 6 7 4 7 10 10 6 5 6 6 5 4 6 7 7 7 7 7 6 5 7 7 9 11 11 11 9 8 9 10 12 13 15 14 14 15 16 18 20
18 17 18 20 21 22 21 20 20 19 18 19 18 17 18 19 17 18 19 19 17 18 19 19 19 16 14 14 12 12 10 7 9 9 7 8 7 7 7 6 6 6 4 4 4 4 6 7 6 9 14 14 7 4 4 5 5 4 4 5 5 6 7 7 4 4 8 7 7 8 9 10 9 7 7 9 11 14 14 12 13 16 17 18 19
23 20 19 19 19 22 22 19 20 19 18 18 18 16 17 18 17 16 16 17 17 17 16 15 15 13 13 13 11 11 9 7 8 8 7 6 6 7 6 5 5 5 4 4 4 4 4 5 6 7 8 10 12 5 4 3 5 3 3 5 4 4 7 6 4 4 7 7 6 6 7 9 9 8 8 10 11 14 14 12 14 17 16 17 18
26 24 21 21 19 20 20 19 21 20 17 18 18 16 15 16 16 15 15 15 14 13 13 13 13 13 13 13 12 11 10 8 9 9 7 5 5 7 7 6 5 4 4 5 4 4 5 6 5 6 6 3 13 8 3 5 6 3 3 4 3 1 4 4 4 4 5 6 6 6 7 8 8 10 11 11 11 13 13 13 14 14 14 15 16
22 23 24 25 20 19 20 20 21 19 18 18 17 16 15 15 14 13 13 13 12 12 12 12 12 13 13 13 13 12 11 10 9 10 9 5 5 6 5 6 5 4 6 7 6 6 5 6 6 6 7 4 5 9 6 5 4 4 3 3 4 2 2 4 5 2 2 3 5 6 7 8 9 10 11 11 10 11 12 12 12 12 13 14 15
18 20 22 22 20 20 19 20 21 19 18 18 17 16 15 14 13 12 12 12 11 11 11 11 11 12 13 14 14 12 10 10 10 9 9 6 5 6 4 3 4 5 6 6 6 5 4 6 8 8 6 6 6 2 9 7 5 6 7 5 4 4 3 2 5 4 4 4 5 7 7 8 9 10 10 11 10 10 11 10 9 11 13 14 15
17 18 20 19 20 20 18 20 21 19 19 18 17 15 13 13 12 11 12 12 11 10 11 10 10 11 12 13 13 12 10 10 10 9 9 7 4 5 5 3 4 4 5 6 6 5 4 5 6 8 7 6 8 3 4 4 2 6 9 6 4 3 5 6 3 4 4 3 4 5 6 7 9 9 9 10 9 10 10 9 8 8 10 12 13
17 19 20 18 20 20 18 20 21 20 20 19 17 15 14 13 12 12 12 12 11 11 11 11 10 10 11 12 11 11 11 11 10 10 9 8 6 6 6 5 6 5 6 6 6 6 4 5 6 7 8 8 7 4 1 1 5 9 7 6 5 4 5 7 4 2 3 4 3 4 6 6 7 8 7 7 7 8 8 8 8 6 7 8 9
16 18 19 17 20 21 19 20 21 21 20 19 18 15 15 14 13 13 12 12 12 12 12 12 12 11 11 13 12 11 12 12 11 11 9 9 8 7 6 6 6 6 7 6 5 5 5 6 8 8 9 9 7 3 3 1 9 10 4 4 5 5 3 2 2 2 1 4 3 3 5 5 6 7 6 6 6 6 7 8 8 7 7 6 7
15 16 18 17 19 19 19 20 20 21 20 18 18 16 15 15 14 13 12 12 13 13 12 12 12 11 11 13 12 11 12 12 12 11 10 9 9 7 7 7 7 7 7 6 5 6 7 7 8 9 9 8 8 3 1 2 5 7 5 3 2 2 2 1 1 3 2 2 1 2 5 6 7 6 5 5 6 6 7 8 8 7 7 7 7
16 17 17 17 18 18 19 20 19 20 19 18 18 16 15 14 13 13 13 13 13 13 12 12 12 12 13 13 11 12 12 12 12 11 11 10 9 9 8 8 8 8 8 7 6 7 8 8 8 9 9 7 8 4 2 3 2 7 7 3 1 1 1 2 2 2 2 0 2 3 4 5 6 2 5 3 3 4 5 6 8 9 9 9 8
16 18 17 16 17 17 19 20 18 18 18 18 18 15 14 14 13 12 13 13 14 14 13 12 13 12 13 15 12 13 13 12 12 11 11 10 10 10 9 9 9 9 8 7 7 7 7 9 9 9 7 6 8 6 3 2 3 5 3 1 3 4 1 1 3 1 1 3 2 0 4 3 4 4 6 3 1 3 5 5 7 9 10 11 11
15 17 17 17 17 17 18 19 18 18 18 18 18 15 14 14 12 10 11 12 12 15 15 13 13 12 11 13 13 13 13 12 12 12 11 11 11 11 10 10 9 9 8 7 7 8 8 9 9 8 7 6 8 9 6 2 3 3 1 0 2 2 1 4 4 1 3 3 2 3 4 1 3 4 5 4 3 3 4 6 8 8 8 10 11
16 17 18 17 17 18 19 19 19 18 17 18 18 16 15 15 13 10 10 11 10 12 15 14 13 13 11 12 12 12 13 12 12 12 12 11 11 11 11 10 10 9 9 8 8 8 8 8 8 8 8 7 6 6 6 5 0 2 1 1 2 1 0 4 3 1 3 4 2 2 6 3 1 0 1 2 3 4 4 6 7 6 6 9 10
16 17 18 17 17 18 19 19 19 18 17 18 19 17 15 15 15 12 11 11 10 10 11 12 11 11 11 11 10 11 13 12 12 12 12 12 11 12 12 11 11 10 10 9 9 9 9 8 7 7 6 5 3 3 5 6 3 4 2 3 4 3 2 2 1 1 1 3 3 2 4 5 2 2 3 1 2 2 3 5 4 3 4 7 9
17 17 18 18 17 19 20 19 19 19 17 18 20 19 17 16 16 14 13 12 12 12 11 10 9 7 9 10 9 9 10 12 13 13 12 12 12 12 13 13 12 11 10 10 10 9 9 8 7 5 4 4 3 4 7 7 6 5 4 3 4 5 6 5 4 3 2 2 2 3 3 4 3 3 2 1 3 3 5 4 3 2 5 7 8
19 18 18 18 17 18 20 20 19 19 18 18 20 20 18 17 17 15 14 13 13 12 11 11 10 7 8 10 10 8 7 10 13 13 13 13 14 14 14 14 13 12 11 10 10 10 7 7 7 5 4 5 5 7 9 8 9 8 5 5 4 4 6 6 6 5 2 2 2 3 4 3 2 4 1 2 5 5 5 5 5 6 8 8 8
20 20 19 19 18 17 19 20 20 20 19 18 20 21 19 17 17 16 14 14 13 11 12 14 13 11 11 11 11 9 8 9 11 11 12 13 14 14 14 14 14 13 12 11 11 10 7 8 8 7 6 7 7 7 9 9 9 10 7 5 6 5 2 2 5 7 5 4 2 3 6 6 4 3 3 2 3 5 6 6 9 12 12 9 9
20 20 19 20 20 18 19 20 21 21 19 19 20 20 19 17 17 16 14 14 13 11 13 16 15 14 14 13 12 10 8 9 10 10 11 13 13 14 14 13 14 14 13 12 12 10 8 8 8 8 8 10 10 8 9 10 10 11 10 8 10 8 5 3 7 10 7 3 1 2 4 6 8 8 8 6 5 5 6 7 10 13 13 11 10
Wind_Direction
144 145 146 149 147 148 145 144 143 143 140 137 135 134 139 143 148 149 144 141 135 129 125 121 119 115 112 110 108 107 107 105 105 104 103 101 98 95 91 89 88 85 83 80 80 79 78 79 79 81 82 85 87 90 99 104 100 96 94 90 88 87 86 88 89 92 94 99 105 107 100 99 99 98 101 106 111 113 113 113 117 117 115 118 118
147 146 146 149 149 147 145 145 146 146 142 139 137 134 138 147 151 152 149 146 141 135 129 125 121 118 114 111 108 108 107 107 107 106 105 103 102 99 94 91 90 88 85 81 79 78 78 80 79 78 80 84 88 93 98 99 97 92 89 89 90 90 90 87 87 88 90 90 94 106 108 103 100 100 101 101 104 111 116 117 120 119 117 120 121
143 145 146 148 148 147 146 147 148 146 142 140 138 134 137 148 153 155 154 151 147 141 132 127 123 121 117 114 112 111 109 109 109 108 105 103 103 101 97 92 91 90 87 86 83 80 79 81 83 81 80 82 86 92 96 95 94 90 88 88 87 91 91 88 92 91 92 91 86 89 104 112 108 107 104 95 96 109 121 122 124 123 121 121 122
138 143 147 147 146 147 149 149 149 145 142 140 138 136 135 143 154 158 157 154 151 145 137 130 126 124 120 118 116 116 115 114 114 111 108 104 102 101 100 96 93 93 91 89 87 86 84 84 85 85 84 84 87 91 95 95 94 93 92 91 91 91 91 96 98 98 103 108 103 91 91 111 117 114 108 107 117 126 128 124 125 123 123 126 127
138 141 145 145 144 148 150 150 149 147 145 144 141 138 136 136 149 158 159 157 155 149 141 135 131 128 123 121 121 121 120 121 121 119 114 109 105 104 103 100 98 96 95 94 92 92 90 89 88 89 88 88 91 93 98 99 95 96 97 95 93 90 95 101 100 104 109 112 118 112 98 101 117 120 112 114 125 128 125 123 124 122 124 128 132
139 140 142 143 145 149 150 150 149 148 147 147 142 138 138 137 142 150 157 159 159 154 149 144 139 134 130 127 126 126 125 125 127 126 121 117 111 108 109 107 103 101 100 99 98 98 97 97 95 94 93 92 94 94 98 98 99 100 100 99 94 92 87 81 97 115 113 107 114 110 103 99 112 127 125 118 120 123 124 126 127 125 124 125 129
137 138 141 144 148 150 151 152 150 150 150 149 144 142 142 140 141 144 151 159 164 163 160 156 149 143 139 136 134 132 131 130 130 131 128 124 119 115 116 113 109 108 107 106 105 105 105 105 103 99 97 99 100 100 100 97 103 102 104 105 101 95 73 54 74 115 114 101 119 109 104 114 114 121 129 124 122 128 132 134 135 134 130 126 127
132 134 138 141 148 151 152 153 152 152 154 152 147 146 145 142 143 143 147 154 163 168 168 165 158 153 148 145 142 139 137 136 135 134 133 130 126 124 124 120 118 118 117 115 112 111 113 112 110 107 105 106 109 114 116 113 115 116 125 111 108 95 76 80 98 134 22 33 153 140 114 128 124 114 120 126 128 132 134 134 135 133 133 135 135
128 130 134 137 149 151 149 150 149 151 155 156 153 152 148 146 147 147 148 150 155 163 169 169 164 159 153 149 147 146 143 140 140 139 138 136 133 130 130 129 127 128 125 123 120 122 124 124 119 114 112 112 121 131 139 150 152 171 180 114 105 89 73 111 130 230 318 353 151 151 142 131 123 120 119 124 131 134 131 130 132 133 137 141 140
130 131 135 140 151 152 147 146 145 145 151 155 159 160 154 151 152 152 154 155 153 154 163 168 168 163 157 153 152 151 147 144 145 143 143 142 140 140 140 140 143 143 137 131 132 138 143 143 133 117 119 126 137 142 157 178 186 215 238 223 104 94 88 84 143 292 326 299 164 131 158 144 135 148 131 129 131 128 128 130 136 142 146 145 144
133 134 142 147 149 150 146 147 145 144 149 155 164 168 162 157 156 158 159 159 156 155 159 163 167 166 161 158 157 155 151 150 149 147 148 148 146 148 153 156 162 160 152 148 149 157 164 164 146 126 132 147 154 151 165 180 213 232 243 236 181 111 93 89 217 315 348 243 244 157 179 191 162 175 153 143 140 130 134 141 143 148 150 152 155
132 135 142 145 143 146 146 147 146 148 156 159 166 171 167 159 160 166 162 160 162 165 167 164 166 170 164 161 161 159 159 158 156 153 153 154 151 156 164 169 174 168 163 164 164 172 178 175 154 141 155 166 161 169 186 193 226 240 234 234 176 113 83 106 158 315 347 175 222 196 194 212 191 193 178 159 155 144 147 154 151 151 150 154 160
133 134 137 140 143 144 145 146 148 152 160 161 164 170 171 166 165 170 167 165 167 171 175 172 172 179 174 169 169 170 174 169 162 163 162 160 162 170 176 182 186 177 174 177 180 189 192 188 173 163 176 182 185 190 203 221 232 246 242 256 250 94 80 113 141 297 343 140 201 202 192 205 207 200 185 174 167 159 160 159 158 158 154 157 160
133 134 135 140 145 144 143 144 147 152 157 159 159 163 168 169 167 169 172 171 173 175 177 176 178 189 188 184 184 182 183 174 168 171 169 165 173 185 190 195 197 190 194 200 201 210 213 206 187 179 195 196 205 210 223 243 240 254 255 261 264 256 91 118 128 161 240 144 176 188 193 203 210 199 187 188 178 170 168 162 165 165 160 162 162
132 134 136 141 143 144 145 144 145 147 152 154 155 158 162 165 166 169 173 172 175 178 178 179 180 192 194 194 195 187 183 177 175 178 176 173 181 195 199 201 201 201 209 216 218 225 225 219 206 193 210 210 215 232 241 254 250 257 258 260 257 255 280 155 145 132 148 164 158 185 203 204 209 203 192 195 188 181 175 166 172 172 163 164 166
130 133 136 139 141 143 145 146 148 148 149 151 153 158 162 164 165 169 173 172 174 175 180 182 181 189 191 195 199 187 182 181 182 184 185 185 190 202 205 205 203 208 213 217 219 219 213 207 219 212 225 231 232 241 246 253 254 259 258 262 265 267 293 291 288 203 134 153 180 196 205 206 208 204 198 205 200 190 183 176 178 176 170 170 171
130 131 133 136 138 141 143 146 150 149 150 153 154 158 161 161 162 166 169 170 173 174 179 182 182 188 189 194 194 188 189 185 186 189 193 197 202 208 207 205 202 209 210 205 208 201 197 213 228 224 231 235 235 238 242 250 255 259 257 260 268 276 282 283 290 260 191 189 212 193 199 211 207 201 205 213 208 198 191 189 188 182 179 179 179
130 130 132 135 139 143 145 147 149 149 151 155 155 158 159 157 159 162 164 166 170 173 174 178 181 185 189 193 189 187 192 186 185 189 194 200 206 207 199 193 198 207 200 193 202 197 206 233 238 233 239 239 240 247 249 254 259 260 258 264 272 276 270 264 276 271 257 213 211 194 205 223 218 209 209 213 212 207 199 196 195 192 192 189 188
131 131 132 135 140 145 148 149 152 153 151 155 156 159 161 160 161 162 163 165 167 169 172 176 176 180 185 185 182 182 185 184 184 188 196 200 201 197 185 182 196 201 195 196 205 206 225 238 242 245 250 247 247 256 260 261 262 264 265 270 278 279 271 264 260 262 261 227 217 213 218 225 223 216 211 213 214 211 206 201 201 201 203 199 195
132 134 134 135 138 143 149 154 158 159 155 154 156 160 166 166 165 164 164 164 165 169 173 176 172 176 179 172 170 172 175 181 183 187 192 192 187 183 179 183 194 198 196 200 201 211 234 242 246 250 253 253 255 263 267 266 267 271 273 273 276 274 267 263 253 256 265 254 234 227 230 229 220 216 213 216 216 212 211 207 207 208 209 207 203
139 139 137 138 139 142 151 158 159 161 158 153 154 161 168 166 163 163 165 163 165 169 170 174 168 167 170 163 162 167 171 176 179 182 180 177 179 182 182 183 191 198 199 197 202 222 240 246 246 252 256 257 263 267 266 267 272 275 278 277 272 268 264 262 259 263 271 270 256 239 240 242 228 219 217 220 219 215 214 213 213 214 215 214 210
145 143 144 145 144 146 154 162 159 161 163 156 154 161 165 162 159 163 166 167 170 169 165 167 165 163 166 166 167 167 168 173 173 172 176 176 181 186 183 184 193 204 215 214 219 231 243 250 253 259 261 261 263 262 262 264 274 283 282 275 269 270 268 264 266 271 271 262 256 244 237 241 235 228 224 222 222 218 216 218 217 218 221 221 217
150 150 153 151 149 148 153 163 161 162 169 165 159 161 163 159 158 164 167 169 171 169 164 164 169 169 168 171 171 164 166 173 171 174 182 182 188 192 183 184 199 215 229 226 229 237 244 256 261 262 258 258 257 254 258 262 273 291 291 279 272 274 272 268 266 271 278 274 261 246 239 241 240 236 229 223 223 221 220 222 221 221 222 224 224
156 155 155 155 153 150 151 161 161 161 168 169 167 165 165 163 161 164 169 169 169 171 168 168 176 174 168 171 169 163 172 175 173 182 188 185 190 196 183 185 204 216 226 228 234 239 248 263 263 260 258 259 264 267 270 269 269 280 289 287 278 279 281 276 266 267 273 276 275 265 249 240 236 234 227 224 224 221 222 224 224 223 222 223 225
157 155 156 158 155 153 153 156 159 161 168 170 171 171 168 170 169 166 171 170 167 174 175 172 175 172 167 170 172 173 180 179 177 184 184 179 184 192 190 194 202 206 215 228 237 246 261 265 256 256 265 275 272 273 280 278 269 266 280 283 279 279 282 279 276 277 272 264 276 274 251 241 237 233 226 222 223 222 222 225 227 226 223 223 223
156 156 158 161 156 154 153 154 158 164 171 169 170 173 171 174 174 171 173 171 170 176 179 177 175 176 174 177 180 179 179 178 175 176 177 177 182 192 197 199 200 201 209 223 228 237 244 243 253 260 270 284 274 268 281 280 271 263 273 279 279 278 276 277 276 279 273 259 266 267 253 251 245 235 227 223 223 225 226 226 228 227 226 225 223
156 157 158 162 159 156 154 156 158 162 168 168 169 171 176 181 178 177 178 175 174 178 184 182 177 181 184 182 180 173 172 172 168 173 181 184 190 196 202 204 199 198 206 215 220 227 236 246 265 271 272 282 280 286 296 289 282 276 271 277 282 279 271 266 267 274 278 275 282 288 288 288 266 243 230 225 225 227 228 227 226 227 228 227 224
155 156 157 162 163 160 157 158 158 161 164 169 177 177 183 186 183 182 180 182 180 181 190 188 179 181 183 181 175 168 171 175 177 190 195 193 198 200 204 204 198 199 202 208 221 230 246 261 276 289 288 286 280 287 296 289 290 289 279 280 286 285 275 265 274 285 284 289 300 302 304 292 267 250 234 228 227 228 228 228 229 229 229 226 225
158 157 159 163 166 164 160 160 159 163 164 166 178 183 185 180 180 181 177 186 187 186 192 191 187 184 184 181 175 175 180 185 189 198 203 200 201 203 206 203 195 197 194 199 217 234 264 272 279 294 298 296 286 287 301 294 288 289 285 288 293 292 280 272 282 288 287 292 292 288 289 279 264 249 238 234 232 230 228 229 231 231 229 226 226
162 161 165 165 165 165 163 163 163 168 166 164 170 178 186 176 172 177 179 185 189 192 193 192 191 187 191 185 180 185 186 194 200 199 204 200 197 202 208 205 191 188 186 189 209 232 266 285 294 293 285 295 282 284 314 309 291 290 293 293 290 291 281 278 286 289 297 300 290 283 272 269 267 252 240 242 243 238 234 234 236 236 235 230 227
162 164 168 164 160 164 167 167 166 170 168 167 169 169 176 172 165 177 185 184 185 193 188 187 189 185 190 187 184 183 182 207 211 199 197 191 191 198 203 201 186 187 186 186 221 251 260 279 297 273 262 276 246 260 308 305 294 297 298 295 289 285 277 282 292 289 286 281 280 280 265 257 255 248 244 250 255 250 242 240 240 241 241 239 233
165 167 168 164 162 165 170 170 170 173 169 167 167 164 169 170 170 176 183 186 186 187 178 178 187 184 182 186 191 180 185 214 203 191 189 186 190 191 195 200 195 199 188 193 226 262 247 241 287 269 238 229 221 252 286 287 301 306 290 290 295 290 279 290 304 287 273 271 275 277 273 266 248 238 241 249 258 258 251 247 245 245 245 243 240
170 169 169 166 165 166 168 171 172 173 171 167 164 164 167 168 173 174 174 179 181 183 181 181 185 182 179 188 196 189 192 196 182 184 183 187 192 184 191 194 199 212 182 186 201 224 215 205 287 289 231 212 219 242 241 245 266 271 272 283 296 295 288 306 320 290 272 272 279 279 278 278 259 237 233 240 250 254 253 251 249 247 244 243 240
167 169 176 170 166 167 166 170 170 173 175 167 163 166 166 166 172 171 171 175 179 185 184 178 177 177 180 188 193 190 187 168 173 186 175 185 192 186 201 189 194 218 208 208 224 244 222 209 268 263 216 204 203 220 236 243 239 226 254 276 291 299 296 306 319 290 273 268 290 291 279 276 263 245 240 247 251 250 249 244 242 244 243 244 241
163 172 181 173 171 165 162 168 169 173 175 166 163 168 167 166 172 172 173 177 179 183 180 173 174 178 183 186 188 189 183 171 178 185 184 203 199 189 206 204 202 208 215 236 235 253 270 254 272 267 221 184 172 202 308 233 204 209 240 258 278 300 296 299 317 306 281 267 288 304 287 281 271 261 262 263 260 253 248 235 236 244 244 245 244
163 171 173 174 179 164 161 167 168 172 172 166 165 169 169 169 173 173 175 179 179 179 179 178 179 181 184 184 186 188 184 180 184 183 185 215 219 200 197 205 215 202 218 251 240 246 275 273 285 293 293 162 158 178 275 206 193 207 208 212 216 283 305 305 319 297 268 251 274 307 308 303 292 277 270 264 259 256 249 237 235 243 244 243 244
166 167 166 175 177 162 167 167 166 172 170 166 166 168 171 172 175 173 174 181 180 180 185 187 183 181 184 189 187 185 186 184 190 189 179 192 227 226 204 195 215 224 228 250 251 247 267 272 285 285 294 317 174 167 160 177 211 214 166 163 188 129 9 320 332 325 278 278 293 312 309 300 293 281 270 260 256 256 249 239 233 235 238 239 241
174 169 166 175 170 163 173 166 163 171 167 165 166 167 171 173 177 177 176 181 184 182 188 196 192 184 185 190 185 179 188 189 194 197 185 192 222 233 242 198 200 224 232 249 257 256 275 276 283 290 297 309 295 153 133 156 199 173 123 118 182 149 105 5 354 14 20 356 329 314 303 291 285 279 271 262 260 257 245 236 231 231 236 238 239
177 171 167 175 165 164 171 160 162 168 165 165 166 167 170 172 178 182 178 181 190 185 187 201 202 192 181 182 180 176 192 197 197 202 194 196 218 229 245 238 218 238 251 257 268 271 282 289 286 293 305 303 292 293 128 153 164 117 110 125 158 138 117 107 58 11 13 1 341 311 296 290 279 272 268 262 262 258 243 233 232 234 240 242 244
178 170 169 174 160 162 166 158 163 164 162 165 167 170 172 176 180 184 181 180 190 186 187 199 205 203 184 179 183 180 192 201 200 206 199 196 212 225 227 231 234 245 255 258 276 283 281 297 296 291 296 293 286 289 351 69 111 104 110 147 139 107 103 110 115 38 346 312 323 303 285 291 285 274 267 258 255 255 242 230 227 227 236 244 253
180 168 169 173 159 163 165 160 165 164 163 167 172 176 176 179 184 187 184 180 189 189 191 199 203 208 191 182 186 184 193 200 202 206 202 202 212 222 225 228 235 242 253 260 275 287 287 293 298 294 285 281 284 287 307 257 138 122 107 152 145 129 121 106 144 164 281 275 267 278 287 305 307 287 270 258 238 231 226 224 224 224 229 240 262
175 167 173 173 162 166 166 164 166 164 167 170 174 180 180 181 186 190 188 181 188 192 195 201 206 207 188 177 180 183 195 199 202 206 205 210 214 219 227 229 237 244 253 262 270 278 281 282 286 288 287 290 292 282 277 283 145 138 140 133 126 157 178 283 198 172 182 215 221 317 322 334 331 294 247 238 228 219 226 231 227 223 227 231 250
172 171 178 173 165 167 166 167 167 165 170 173 176 182 182 184 187 191 192 186 188 193 199 202 210 212 188 178 184 186 195 202 203 206 207 212 215 221 230 233 238 242 246 254 264 270 274 275 274 272 279 293 298 319 4 293 119 132 149 128 83 180 320 295 223 189 176 223 38 21 321 336 355 295 188 198 237 240 253 245 229 223 231 226 222
174 172 178 176 171 172 167 168 173 171 174 177 179 183 183 186 190 194 197 193 188 189 200 206 216 221 190 180 194 196 196 203 205 207 210 214 217 222 229 235 238 238 243 247 251 261 265 266 265 264 278 302 301 312 324 263 97 104 155 171 159 161 11 231 200 230 269 299 346 328 277 326 53 137 172 192 220 236 250 233 216 218 230 227 217
179 174 178 183 178 177 173 173 178 178 178 179 180 183 182 184 190 199 204 199 189 184 192 206 215 221 199 182 194 200 199 205 209 212 215 216 217 221 226 235 242 239 241 245 245 254 262 266 272 272 269 275 276 289 319 357 75 80 107 351 150 148 115 157 156 246 256 266 275 268 291 347 101 140 167 184 168 177 212 208 207 213 228 227 218
185 178 178 187 183 181 178 177 182 181 183 182 180 184 182 182 189 197 202 197 190 185 190 202 208 210 210 199 192 196 204 209 213 216 219 220 217 220 225 230 240 241 237 243 249 256 262 263 273 278 266 254 258 285 323 331 181 142 137 180 183 232 142 147 135 267 241 246 228 282 315 333 60 54 114 143 151 149 171 196 206 211 225 219 211
185 178 180 191 186 183 180 179 184 184 186 184 182 186 183 182 189 193 197 193 190 193 195 205 209 205 211 216 203 199 208 214 220 223 222 222 217 218 225 227 235 244 242 243 249 252 257 258 264 278 277 281 321 338 313 298 242 202 228 225 201 213 227 186 192 169 187 257 214 180 290 301 319 329 349 37 111 145 202 194 173 172 197 200 202
183 177 183 192 189 184 181 181 185 186 188 185 183 188 185 184 190 194 196 193 194 198 197 206 218 214 208 214 214 210 211 215 223 227 224 223 221 221 228 230 231 241 246 246 248 251 255 259 266 279 275 283 312 294 277 280 274 250 227 229 224 213 215 215 219 196 145 218 200 163 236 267 295 314 339 117 140 163 229 207 142 173 204 197 203
183 182 183 190 192 185 181 183 185 187 190 187 185 189 189 187 191 197 198 196 199 198 193 200 211 220 216 208 211 217 218 216 220 226 227 225 223 223 230 235 234 240 247 247 249 252 255 252 256 269 271 270 272 268 266 268 275 274 237 210 229 232 221 215 218 215 194 222 200 141 189 219 285 300 320 145 159 160 188 184 161 194 208 199 193
186 188 184 186 188 184 182 186 186 188 191 188 187 190 192 190 191 199 200 198 202 196 190 196 196 205 215 209 206 211 219 220 218 223 230 229 226 223 227 233 236 240 243 245 251 255 259 263 260 256 257 262 263 267 271 264 264 275 272 230 226 235 219 219 234 222 212 257 280 135 175 182 171 235 252 220 185 156 154 167 171 187 200 193 176
183 185 184 183 182 181 183 186 187 190 190 190 190 190 193 193 194 201 201 200 202 193 191 197 196 200 209 208 203 205 214 221 218 222 230 232 232 230 229 233 235 238 239 241 251 262 269 272 263 252 258 262 257 259 270 268 262 266 272 252 233 220 196 233 268 249 217 200 229 154 186 187 170 186 202 212 208 162 158 174 174 182 189 185 177